Temp
20 19 19 18 18 18 23 22 24 24 25 24 24 24 23 22 21 18 20 18 17 17 17 18 18 18 18 18 18 18 18 18 17 18 18 17 17 17 18 18 18 18 18 18 18 18 18 17 17
20 20 19 19 19 21 22 24 23 23 24 24 23 23 22 20 20 19 18 18 18 18 18 18 18 18 18 18 17 18 17 17 17 17 17 17 17 17 17 17 18 18 18 18 18 18 18 17 17
20 19 19 17 18 22 22 24 23 24 24 24 23 22 21 18 19 19 19 18 18 18 18 18 18 18 18 18 18 18 18 18 17 17 17 18 18 17 17 18 18 18 18 19 18 18 18 17 17
20 19 20 19 20 24 23 23 24 24 24 23 22 21 20 19 18 19 19 19 19 19 18 18 18 18 18 18 18 18 18 18 18 18 18 18 18 18 18 18 18 18 18 19 18 18 18 17 18
20 20 18 19 21 25 25 25 25 24 22 22 21 21 19 19 20 19 19 19 19 19 19 18 18 18 18 18 18 18 18 18 18 18 18 18 18 17 17 18 18 18 19 19 19 18 18 18 17
21 20 19 20 25 25 25 25 24 23 21 21 21 20 18 19 19 19 19 18 19 20 19 18 18 18 18 18 18 18 18 18 18 18 18 18 18 17 18 18 19 19 19 19 19 19 18 17 18
19 16 18 20 24 23 24 25 24 23 22 22 21 19 17 18 19 19 19 19 20 19 19 19 18 19 19 18 18 18 18 18 18 18 18 18 18 18 18 18 18 19 19 19 19 19 18 18 17
20 17 19 21 22 23 25 24 24 23 22 22 21 20 17 19 19 19 20 20 19 19 19 19 19 19 19 18 18 18 18 18 17 18 18 18 18 19 19 19 19 19 19 19 19 19 18 18 18
20 19 20 22 23 23 25 24 24 24 23 23 23 21 20 20 19 19 19 18 18 19 19 19 19 19 18 18 18 18 18 18 19 18 18 18 18 18 18 18 18 19 19 19 19 19 19 19 18
21 18 19 19 19 21 24 25 25 24 23 23 22 21 20 21 19 19 19 19 19 18 18 19 19 19 19 19 18 18 18 18 19 18 17 18 18 18 18 18 18 18 18 18 19 19 19 19 19
21 18 17 19 19 18 22 25 25 24 23 23 21 20 20 20 20 19 20 20 19 19 19 19 19 19 19 19 18 18 19 18 17 17 18 18 18 18 19 19 19 18 19 19 19 19 19 19 20
18 17 16 18 18 18 21 25 24 24 23 23 22 22 21 20 21 20 20 19 19 19 19 19 19 18 18 19 18 18 18 18 18 18 18 19 19 19 19 19 19 19 19 19 19 20 20 20 20
19 18 18 17 17 19 19 23 25 23 24 23 22 22 21 21 20 21 21 20 19 19 19 19 19 18 18 19 18 18 19 18 18 18 19 19 19 19 19 20 20 20 19 20 20 20 20 20 20
19 18 17 17 18 18 22 24 24 22 24 23 23 22 21 21 20 21 20 19 19 19 19 19 18 18 18 19 19 18 19 18 19 18 19 19 19 19 20 20 20 20 19 19 20 20 20 20 20
18 18 18 18 17 19 21 24 23 24 24 24 23 24 23 22 22 21 21 20 20 20 20 19 19 19 19 19 19 19 19 19 19 19 18 18 19 19 19 19 19 19 19 20 20 20 20 20 20
18 20 19 17 18 20 21 20 23 24 24 24 24 24 24 22 22 21 21 20 20 20 20 20 19 19 19 19 19 19 19 19 19 19 19 18 18 19 19 19 19 19 20 20 20 21 21 21 21
18 18 18 19 18 19 20 20 23 24 24 24 24 24 23 22 21 21 21 21 20 20 20 19 19 19 19 19 19 19 19 19 19 19 19 19 19 18 19 19 19 19 20 20 21 21 22 21 21
18 18 18 18 18 19 18 18 20 24 24 24 24 24 23 22 22 22 22 20 20 20 20 20 19 19 19 19 19 19 19 19 19 19 19 19 19 19 19 20 20 20 20 20 20 21 21 21 21
20 20 19 18 17 18 18 18 18 19 21 23 24 24 23 23 22 22 21 21 21 21 20 20 19 19 19 19 19 19 19 19 19 19 19 19 19 19 19 20 20 20 20 20 21 21 22 22 22
21 18 17 17 17 18 17 18 17 17 19 19 21 23 24 23 22 22 21 21 21 21 20 20 19 19 19 20 19 19 19 19 19 19 19 19 19 19 19 20 20 20 20 20 20 21 21 22 22
21 19 18 18 17 16 17 17 17 18 18 19 20 21 23 24 22 22 21 21 21 21 20 20 20 20 20 19 19 19 19 19 19 19 19 20 19 19 19 20 20 20 20 20 20 20 21 21 22
19 21 20 18 18 17 17 18 17 16 18 19 20 21 23 24 23 22 21 21 21 21 20 20 20 20 19 19 19 19 19 19 19 19 19 19 19 19 19 19 20 20 20 20 20 20 20 21 21
19 21 20 19 18 18 18 18 18 17 19 20 20 21 21 23 23 22 22 22 22 21 21 20 20 20 20 19 19 19 19 19 19 19 20 19 19 19 19 19 19 19 19 20 20 20 20 20 20
20 19 19 18 17 17 19 19 19 17 20 22 21 21 21 23 22 22 22 22 22 22 21 20 20 20 20 19 19 19 19 19 19 19 19 19 19 19 19 19 19 19 20 20 20 20 20 20 20
19 17 17 17 18 18 18 18 20 19 19 20 22 20 22 22 22 22 21 21 21 21 21 20 20 20 20 20 19 19 19 19 19 19 19 19 19 19 19 19 19 18 19 19 20 20 20 20 20
19 18 18 19 19 20 19 19 20 22 22 22 21 22 21 22 23 22 22 22 21 22 21 21 21 20 20 20 20 19 19 19 19 19 20 20 20 20 20 19 19 18 19 19 19 19 19 20 20
20 20 21 19 20 20 19 20 20 21 20 20 20 22 21 22 22 22 22 22 22 21 21 22 21 20 20 20 20 20 19 19 20 20 20 20 20 20 19 19 19 19 18 19 19 19 19 20 20
21 21 19 18 20 20 19 21 20 21 20 20 21 22 23 21 22 22 23 22 21 22 21 22 22 21 21 20 20 20 20 20 20 19 19 20 20 20 19 19 19 19 19 19 19 19 19 20 20
23 22 21 20 20 20 19 20 20 21 20 21 21 22 22 21 22 22 23 23 22 22 21 22 22 21 20 20 20 20 20 19 19 19 19 20 20 20 19 19 19 19 18 18 18 19 19 19 19
23 24 20 19 22 20 19 21 21 20 21 21 20 22 22 22 21 22 23 22 23 22 22 21 22 21 21 21 20 20 19 19 19 19 20 20 20 20 20 19 19 19 19 18 19 19 19 19 19
Height
1520 1519 1518 1519 1524 1521 1521 1523 1513 1516 1520 1522 1527 1526 1528 1531 1534 1552 1548 1553 1556 1558 1561 1561 1562 1563 1563 1564 1564 1565 1566 1566 1566 1567 1567 1567 1565 1567 1567 1567 1568 1568 1569 1569 1568 1568 1568 1568 1568
1521 1519 1518 1516 1525 1530 1529 1516 1520 1517 1519 1522 1525 1526 1530 1539 1534 1541 1549 1554 1556 1558 1560 1562 1563 1564 1565 1566 1566 1567 1568 1568 1569 1570 1571 1571 1570 1570 1571 1571 1571 1571 1571 1571 1570 1570 1571 1571 1570
1522 1521 1521 1521 1527 1528 1531 1518 1520 1523 1521 1521 1526 1530 1535 1540 1541 1545 1550 1554 1557 1559 1561 1563 1564 1565 1566 1567 1568 1569 1569 1570 1571 1572 1573 1573 1572 1572 1574 1573 1574 1574 1573 1574 1572 1573 1574 1574 1574
1523 1523 1523 1527 1530 1515 1517 1520 1517 1522 1526 1526 1526 1534 1541 1544 1544 1547 1551 1555 1558 1560 1563 1565 1565 1566 1567 1568 1569 1570 1570 1571 1572 1573 1574 1573 1573 1575 1575 1575 1575 1576 1576 1576 1576 1576 1577 1576 1577
1523 1524 1529 1531 1528 1514 1514 1517 1517 1522 1528 1529 1527 1538 1542 1548 1549 1550 1553 1557 1559 1560 1563 1564 1566 1567 1568 1569 1571 1572 1573 1573 1574 1575 1576 1576 1577 1578 1578 1578 1577 1578 1578 1578 1579 1580 1580 1580 1580
1524 1525 1533 1537 1519 1517 1516 1517 1521 1526 1530 1532 1533 1537 1547 1551 1551 1554 1556 1558 1560 1561 1562 1565 1567 1568 1569 1570 1572 1573 1574 1575 1576 1578 1579 1579 1579 1580 1581 1581 1581 1581 1581 1581 1581 1582 1583 1583 1584
1523 1529 1538 1531 1520 1524 1521 1518 1523 1528 1531 1535 1537 1542 1552 1554 1554 1556 1559 1560 1562 1563 1564 1566 1567 1568 1570 1572 1574 1576 1577 1578 1578 1580 1581 1582 1583 1584 1584 1584 1584 1584 1583 1583 1583 1583 1584 1586 1586
1524 1529 1536 1528 1525 1527 1520 1524 1525 1523 1532 1536 1538 1545 1552 1554 1556 1559 1562 1563 1564 1565 1567 1567 1568 1570 1572 1574 1575 1577 1578 1579 1580 1581 1583 1585 1586 1585 1585 1586 1586 1586 1586 1586 1585 1586 1586 1587 1588
1527 1533 1535 1525 1524 1524 1521 1521 1531 1530 1532 1538 1540 1543 1548 1553 1557 1559 1562 1566 1567 1568 1569 1569 1570 1572 1575 1575 1577 1579 1580 1581 1581 1583 1585 1587 1588 1588 1588 1588 1589 1590 1590 1590 1589 1590 1590 1590 1590
1526 1534 1534 1528 1529 1527 1518 1522 1530 1534 1537 1541 1543 1549 1551 1552 1556 1558 1561 1565 1567 1568 1570 1571 1572 1574 1576 1577 1579 1581 1583 1584 1584 1586 1586 1587 1588 1588 1589 1589 1589 1590 1591 1592 1593 1594 1594 1593 1593
1527 1533 1531 1522 1529 1531 1522 1519 1527 1532 1537 1538 1541 1547 1551 1554 1557 1559 1561 1564 1565 1569 1571 1574 1575 1577 1578 1579 1581 1583 1585 1586 1587 1588 1587 1588 1589 1589 1590 1591 1592 1593 1591 1592 1594 1595 1596 1597 1596
1528 1532 1527 1523 1527 1531 1526 1521 1528 1524 1532 1537 1541 1545 1551 1555 1556 1559 1560 1563 1566 1570 1572 1575 1577 1579 1581 1583 1584 1586 1587 1587 1589 1589 1589 1590 1591 1591 1592 1593 1594 1595 1595 1594 1595 1596 1597 1598 1598
1524 1528 1527 1523 1526 1531 1530 1524 1522 1529 1533 1539 1543 1546 1550 1553 1557 1560 1562 1566 1567 1570 1574 1576 1578 1581 1583 1585 1587 1587 1589 1590 1591 1592 1592 1592 1594 1593 1595 1595 1596 1596 1597 1596 1597 1598 1599 1600 1600
1516 1521 1525 1528 1528 1530 1522 1520 1520 1531 1535 1540 1544 1546 1549 1553 1557 1560 1564 1567 1569 1571 1574 1577 1579 1582 1583 1586 1588 1589 1591 1592 1594 1594 1594 1595 1596 1596 1597 1597 1596 1597 1599 1598 1598 1599 1600 1600 1600
1518 1523 1529 1532 1522 1525 1522 1522 1524 1530 1535 1540 1543 1546 1549 1552 1556 1559 1563 1565 1568 1571 1575 1578 1580 1582 1584 1585 1588 1591 1592 1593 1594 1596 1596 1597 1598 1599 1598 1599 1600 1601 1599 1600 1600 1600 1601 1601 1602
1524 1523 1535 1523 1530 1525 1522 1538 1527 1529 1533 1538 1543 1545 1548 1552 1556 1559 1563 1565 1569 1571 1575 1578 1580 1583 1585 1586 1589 1591 1594 1595 1596 1597 1599 1599 1600 1601 1601 1602 1605 1600 1603 1602 1602 1603 1602 1603 1604
1532 1536 1534 1523 1527 1526 1522 1533 1530 1529 1533 1538 1542 1545 1547 1552 1556 1559 1562 1565 1569 1572 1575 1577 1580 1584 1586 1587 1590 1592 1594 1596 1598 1598 1598 1600 1602 1604 1603 1604 1606 1607 1607 1605 1604 1604 1603 1604 1605
1537 1540 1536 1536 1534 1532 1532 1537 1533 1531 1533 1535 1540 1544 1547 1550 1555 1557 1562 1566 1569 1572 1576 1578 1580 1583 1585 1588 1590 1593 1595 1596 1598 1599 1600 1601 1601 1602 1603 1604 1605 1605 1607 1607 1606 1606 1605 1605 1605
1521 1524 1530 1531 1532 1537 1541 1538 1538 1537 1537 1537 1538 1542 1545 1549 1553 1555 1560 1565 1569 1572 1575 1577 1578 1581 1584 1587 1589 1592 1594 1596 1598 1601 1601 1602 1603 1604 1603 1605 1607 1607 1609 1607 1607 1606 1606 1606 1605
1522 1537 1543 1539 1534 1536 1541 1540 1541 1541 1540 1541 1540 1541 1544 1548 1552 1556 1560 1564 1567 1569 1574 1575 1579 1581 1584 1587 1589 1592 1595 1596 1598 1600 1601 1601 1602 1603 1604 1605 1606 1607 1608 1607 1607 1607 1606 1607 1606
1523 1534 1542 1540 1540 1541 1541 1544 1542 1540 1538 1538 1539 1540 1541 1544 1548 1554 1558 1561 1566 1568 1571 1573 1578 1582 1584 1587 1590 1591 1594 1595 1596 1598 1599 1601 1602 1602 1603 1605 1606 1606 1607 1608 1608 1608 1608 1608 1605
1530 1520 1526 1539 1538 1548 1542 1551 1540 1537 1534 1536 1536 1536 1540 1542 1546 1550 1556 1559 1563 1566 1570 1574 1578 1582 1584 1586 1589 1591 1593 1593 1596 1596 1598 1599 1600 1602 1603 1603 1604 1605 1606 1607 1608 1608 1609 1608 1606
1522 1520 1525 1536 1540 1546 1544 1543 1536 1534 1533 1530 1530 1532 1536 1539 1542 1546 1552 1557 1561 1565 1568 1572 1576 1580 1583 1585 1587 1589 1591 1593 1594 1595 1597 1599 1600 1601 1602 1602 1603 1605 1606 1607 1607 1609 1609 1609 1607
1514 1524 1530 1539 1547 1557 1537 1541 1531 1532 1521 1519 1523 1528 1532 1536 1540 1544 1550 1555 1559 1563 1567 1570 1574 1577 1581 1584 1585 1588 1590 1591 1592 1594 1596 1597 1598 1598 1599 1601 1602 1603 1605 1606 1606 1608 1609 1609 1607
1516 1532 1557 1564 1560 1555 1533 1546 1523 1517 1514 1515 1517 1523 1528 1533 1538 1541 1545 1551 1556 1559 1563 1567 1572 1574 1577 1581 1583 1586 1588 1590 1591 1593 1594 1594 1596 1596 1597 1598 1599 1601 1603 1604 1605 1607 1607 1607 1607
1516 1519 1545 1557 1556 1543 1532 1541 1515 1494 1499 1502 1504 1514 1522 1529 1533 1537 1540 1546 1551 1555 1560 1564 1567 1572 1574 1578 1581 1584 1586 1588 1589 1590 1592 1592 1593 1594 1595 1597 1598 1599 1601 1602 1603 1604 1605 1605 1605
1516 1519 1506 1532 1526 1539 1535 1518 1497 1489 1493 1491 1499 1507 1517 1522 1529 1533 1539 1543 1548 1552 1557 1561 1564 1568 1570 1573 1577 1579 1583 1585 1587 1588 1590 1591 1591 1593 1594 1595 1597 1597 1598 1599 1601 1602 1603 1604 1604
1492 1493 1527 1528 1545 1544 1535 1521 1513 1497 1490 1493 1496 1506 1512 1519 1525 1530 1535 1540 1544 1548 1553 1558 1562 1564 1568 1570 1573 1575 1577 1581 1584 1586 1587 1589 1590 1590 1592 1595 1596 1597 1597 1597 1598 1600 1601 1602 1602
1494 1499 1503 1509 1518 1532 1542 1524 1481 1481 1486 1485 1491 1498 1505 1513 1518 1525 1530 1534 1539 1543 1547 1553 1558 1562 1565 1568 1570 1572 1574 1577 1580 1583 1584 1586 1587 1587 1589 1592 1594 1596 1596 1596 1597 1598 1599 1599 1600
1481 1491 1501 1524 1519 1514 1521 1512 1478 1482 1487 1488 1491 1489 1497 1502 1512 1518 1526 1530 1534 1537 1542 1548 1553 1556 1560 1563 1566 1568 1570 1572 1576 1579 1581 1583 1585 1587 1588 1589 1591 1593 1595 1596 1596 1596 1596 1597 1598
Wind_Speed
0 3 8 3 0 3 4 5 9 10 7 18 20 7 14 4 5 4 28 26 23 22 19 19 16 15 15 14 13 14 15 16 16 21 21 21 21 19 19 20 19 18 18 19 19 21 22 23 21
2 7 6 3 3 6 6 10 14 9 18 27 20 21 12 5 20 30 33 24 23 22 20 19 17 15 14 13 13 14 15 17 19 19 19 19 19 17 18 18 17 17 18 19 20 23 23 20 19
2 3 3 3 2 2 8 14 19 22 29 24 10 16 6 10 34 34 27 27 24 22 19 17 15 14 14 14 14 15 16 17 17 17 17 17 18 18 17 17 16 16 17 19 19 20 20 18 20
2 3 4 3 3 4 10 13 26 23 20 31 23 11 14 25 28 31 28 28 23 20 18 17 15 14 14 14 16 16 16 17 18 18 16 16 16 15 15 15 15 14 15 18 18 17 19 18 16
1 1 3 2 3 2 13 25 27 16 19 29 31 14 13 18 30 28 28 25 20 19 17 16 15 15 16 16 17 17 17 18 18 17 16 16 15 14 14 13 13 13 15 17 17 19 19 16 14
2 2 2 3 4 9 14 25 26 22 26 28 26 19 9 32 30 27 22 19 16 16 17 17 17 17 17 18 18 18 18 17 17 16 16 15 15 14 14 14 15 15 17 17 17 19 18 17 14
5 4 4 5 1 12 13 30 23 23 25 14 25 12 20 37 24 25 17 14 16 16 17 18 17 17 16 17 17 17 16 17 16 16 15 15 16 16 17 16 16 16 18 19 18 18 18 17 12
6 4 3 4 2 7 12 15 26 35 10 28 35 12 13 31 29 24 20 21 20 16 15 17 16 17 18 18 18 18 17 17 17 17 16 17 18 18 19 18 18 17 17 19 20 19 18 16 13
8 3 4 2 4 3 17 21 10 21 35 21 9 29 33 33 32 28 24 22 21 20 17 17 16 18 18 20 20 18 18 19 19 19 18 17 16 18 17 17 19 19 18 16 16 17 18 15 11
4 1 3 4 6 6 16 17 21 18 23 16 25 28 34 34 39 30 27 25 20 22 19 14 17 17 19 20 20 20 18 18 20 20 20 18 18 17 16 15 15 14 10 6 10 14 15 15 13
4 2 3 9 4 12 10 20 22 23 14 28 37 38 39 38 37 29 24 20 21 21 20 19 19 21 19 21 22 18 19 17 16 15 15 18 18 15 15 13 11 6 6 7 12 9 8 10 11
7 12 10 7 6 4 14 19 21 27 18 35 36 36 36 37 33 30 26 24 21 21 20 19 19 19 16 20 16 18 18 16 17 14 14 15 13 10 8 12 7 10 6 10 6 7 7 6 6
8 17 18 12 13 13 22 12 9 15 34 36 35 37 40 38 33 26 22 22 22 23 21 20 15 15 14 15 16 17 16 14 14 12 14 15 10 7 7 10 13 11 7 7 13 10 12 8 6
11 16 16 11 14 9 7 10 16 27 32 34 37 38 37 33 34 27 26 26 26 21 19 19 18 12 11 12 18 15 11 11 10 8 7 10 11 7 6 10 12 8 7 4 3 3 3 3 5
15 7 5 4 1 6 7 11 14 33 32 26 34 34 31 33 32 30 29 27 26 21 22 19 19 14 11 14 18 15 13 11 7 9 9 7 9 7 6 4 4 2 3 8 3 1 2 6 7
5 5 4 4 4 5 3 7 22 35 30 23 31 24 24 33 30 32 30 29 26 24 20 18 18 16 15 15 18 12 13 12 8 10 11 8 6 6 4 1 3 3 10 4 3 3 2 3 11
5 4 4 2 10 5 6 4 14 30 29 25 27 24 31 35 30 33 32 28 27 20 18 18 21 19 17 19 19 14 12 10 10 9 7 8 7 7 4 4 5 3 1 5 6 9 5 2 0
5 5 2 4 3 4 6 2 4 25 29 28 27 24 30 31 34 30 32 31 24 18 18 14 24 20 18 17 24 15 14 11 10 9 6 7 8 4 5 7 3 4 6 5 6 6 6 5 2
9 7 5 4 1 4 2 11 6 10 2 20 30 24 31 35 35 34 34 32 25 20 21 16 19 23 23 21 18 18 14 11 9 7 4 7 11 5 6 4 6 4 3 2 6 5 7 5 4
8 12 3 3 4 2 3 11 4 8 6 6 2 26 36 34 35 38 36 32 25 23 20 20 20 24 22 18 14 14 14 10 9 8 7 5 4 7 5 10 7 8 3 2 4 5 6 7 6
10 7 5 3 5 5 3 3 4 2 8 10 6 6 32 38 38 38 38 32 24 23 23 24 23 19 18 20 15 13 13 13 11 10 6 8 5 7 4 7 4 6 4 4 3 5 6 6 1
6 9 13 7 2 3 4 3 5 6 10 9 15 5 24 38 37 39 38 32 27 22 25 22 22 18 21 21 17 14 15 13 10 10 10 12 7 4 4 4 3 7 3 4 3 4 7 6 8
6 13 12 6 4 2 5 4 5 4 11 14 16 15 15 34 39 40 41 33 27 22 25 25 23 19 22 19 16 15 16 16 13 13 12 12 11 9 6 1 7 4 4 6 6 3 2 5 8
18 13 11 5 3 2 6 2 7 5 12 18 15 23 20 27 33 40 40 33 29 23 23 26 26 22 23 23 17 19 14 15 13 11 12 12 13 14 11 9 7 6 9 6 7 6 2 1 4
15 6 3 0 1 5 5 4 8 7 9 17 20 25 28 25 33 37 39 37 33 29 26 23 26 25 26 26 19 18 18 16 13 12 14 13 15 14 17 12 11 7 7 8 5 8 8 6 3
14 6 6 4 2 2 6 5 6 11 10 26 37 33 32 29 32 34 35 39 36 33 29 24 23 27 24 27 24 20 18 15 12 15 14 15 15 12 13 15 11 7 8 10 9 8 7 6 5
6 5 7 6 2 3 4 5 9 8 2 14 23 25 27 38 35 34 32 36 37 38 33 26 23 25 23 26 25 23 19 16 15 15 11 12 9 11 12 16 9 8 9 8 8 7 10 7 6
12 7 3 2 5 4 4 4 7 4 10 10 10 16 26 30 37 33 35 32 35 36 36 29 24 24 21 22 26 23 22 18 16 14 11 9 7 12 15 14 12 11 8 3 7 9 9 7 6
1 1 3 4 4 5 3 6 7 9 8 15 22 27 31 34 40 39 39 43 32 35 38 35 29 28 25 21 24 23 22 21 19 15 11 8 8 9 11 15 14 14 12 9 10 7 10 8 7
3 2 4 5 5 2 4 5 6 7 4 12 12 30 33 37 42 44 38 37 35 35 36 39 33 31 27 24 22 24 22 22 20 19 15 12 9 10 8 15 15 14 11 12 11 10 11 12 8
Wind_Direction
240 309 325 311 30 83 104 80 121 113 115 122 164 159 144 92 142 175 150 158 157 154 150 141 135 131 127 124 117 111 112 114 116 119 121 117 114 116 116 116 115 115 116 116 119 124 120 115 110
219 296 325 327 63 85 93 135 102 107 118 120 95 108 69 81 110 136 151 160 155 151 147 144 141 138 132 127 122 120 122 118 121 117 116 113 112 111 114 116 112 110 115 119 121 123 120 111 115
92 355 345 50 20 71 122 125 128 114 119 121 102 84 75 111 132 140 148 154 153 148 146 144 144 139 135 133 129 128 126 123 118 121 120 116 114 117 113 114 115 114 112 120 128 128 121 113 111
20 4 33 55 326 296 114 117 110 108 108 106 102 78 95 132 139 141 142 151 148 144 145 145 145 142 138 135 136 132 130 125 119 121 120 114 112 114 118 118 117 114 112 119 127 133 124 121 114
16 72 50 3 275 132 119 124 115 112 81 99 111 119 108 142 139 138 140 144 146 146 149 143 140 134 133 132 132 131 133 129 127 123 117 112 108 107 111 115 116 112 108 112 123 134 129 123 122
90 30 57 2 134 92 110 109 104 97 104 106 108 111 114 143 143 145 141 147 144 142 146 145 138 139 133 132 131 132 133 129 125 122 118 117 116 116 113 108 104 102 103 110 120 135 133 131 118
98 69 335 317 6 108 120 128 130 123 121 124 125 106 135 146 146 141 143 150 143 142 142 140 137 138 134 132 130 127 126 127 132 128 122 113 111 104 101 101 103 106 109 111 118 132 141 133 132
91 79 294 238 287 119 134 128 142 137 127 132 129 140 148 151 148 148 131 124 128 129 131 136 138 140 135 130 130 130 128 125 125 127 119 117 107 103 104 105 105 103 104 112 117 127 141 144 136
122 118 233 174 21 63 124 119 129 134 134 144 146 145 145 150 152 144 140 129 128 128 120 130 136 135 132 132 132 134 124 123 122 121 113 113 111 106 109 112 109 103 104 114 122 128 128 127 131
116 193 274 288 319 2 134 123 137 139 142 134 122 145 148 152 155 150 151 146 145 130 129 121 133 132 134 134 131 135 126 119 114 117 119 124 123 120 122 127 126 126 126 124 121 115 126 133 130
99 146 237 270 268 322 271 158 150 142 135 152 141 147 151 154 159 157 156 155 143 133 134 121 123 123 125 132 128 121 113 115 121 126 130 125 130 133 130 139 136 134 121 94 117 138 131 130 126
110 140 191 280 262 272 250 164 156 157 170 160 155 156 157 167 170 163 158 157 155 148 138 135 134 130 119 134 128 124 115 122 127 132 127 120 131 145 140 129 135 126 121 106 132 101 94 126 142
114 180 203 252 268 275 260 261 156 148 155 154 156 160 167 169 169 156 161 156 156 155 149 149 150 145 137 131 131 129 122 125 137 142 124 117 112 157 133 132 129 122 140 109 111 115 114 105 90
147 175 185 197 251 245 277 142 115 149 161 157 158 163 170 172 167 162 165 160 158 152 147 151 159 163 175 149 138 141 138 136 140 131 145 131 123 128 83 112 105 104 110 130 147 88 82 105 94
132 143 145 232 17 301 309 121 133 156 159 159 160 168 168 181 168 171 166 165 163 150 146 154 166 160 156 160 151 147 140 139 141 172 140 139 136 114 102 113 95 76 115 123 113 83 262 174 162
50 91 165 222 290 279 262 152 150 156 156 154 165 157 165 174 172 170 165 166 167 159 161 167 169 148 144 143 158 154 143 137 122 151 161 164 134 107 113 93 72 106 95 72 98 59 186 140 162
23 336 314 35 23 350 35 111 172 158 160 164 173 166 167 167 173 173 174 170 163 159 159 161 173 158 160 159 168 170 164 147 123 115 135 167 152 145 175 180 136 114 154 83 91 64 104 183 286
156 195 196 150 35 17 32 9 322 167 166 169 179 185 167 170 167 174 175 168 162 160 157 161 176 172 175 155 168 176 172 164 164 144 128 175 189 170 179 202 158 48 132 93 83 77 76 146 97
124 129 105 15 85 143 224 201 340 14 158 180 183 186 159 171 173 176 171 168 166 165 159 152 161 174 176 168 171 177 178 178 181 168 148 162 173 182 190 189 171 130 161 59 67 77 99 113 52
72 86 7 78 151 143 54 220 296 320 318 346 209 178 170 161 167 170 170 171 174 171 168 153 157 166 170 172 170 180 186 200 182 178 167 200 193 192 178 151 164 196 178 117 62 77 91 56 79
124 130 206 174 116 68 104 292 270 294 279 294 278 171 180 173 168 172 172 177 178 178 173 166 170 182 190 181 175 184 193 186 178 185 169 169 176 198 207 195 174 173 179 131 99 75 72 55 131
162 158 145 160 152 119 230 236 225 260 264 241 250 197 183 177 177 180 181 182 181 184 177 178 176 186 186 184 187 192 191 189 189 199 183 185 184 192 231 236 183 180 210 183 175 95 56 59 85
180 160 145 151 69 127 277 91 276 185 223 235 237 217 173 179 185 183 185 187 184 185 184 181 182 190 195 193 195 193 206 209 216 214 198 192 188 186 218 272 237 236 208 195 206 166 81 58 64
123 117 70 37 28 298 205 188 274 174 211 223 210 216 186 175 183 188 187 188 186 189 187 188 187 195 200 200 203 207 206 211 213 219 224 225 209 199 201 215 230 243 223 215 219 217 211 173 89
118 97 81 325 250 236 144 173 261 221 199 213 223 212 195 184 174 183 187 190 188 193 190 191 196 199 203 207 211 211 214 225 227 232 234 248 225 219 207 215 233 238 244 211 231 228 231 230 223
181 157 135 196 183 246 137 214 235 214 213 232 224 202 201 194 192 183 184 192 195 197 195 194 193 201 204 210 216 215 221 225 234 230 228 229 226 219 208 219 233 224 247 218 236 226 211 211 212
228 222 168 122 313 125 203 284 294 233 223 145 187 180 198 207 203 196 183 191 200 201 198 203 200 199 203 208 216 218 220 224 217 209 202 221 229 225 227 219 218 210 210 223 230 222 214 211 225
156 164 88 17 159 225 240 267 246 140 132 145 147 186 214 205 208 202 201 192 201 204 206 208 210 202 202 205 210 218 216 210 211 210 222 244 251 232 235 241 228 189 209 215 209 225 202 201 207
276 15 75 127 159 167 166 256 221 190 187 160 179 192 199 197 206 206 209 206 196 207 210 212 211 209 208 204 209 214 216 216 216 220 234 245 235 231 217 220 207 209 204 219 226 224 227 226 207
148 151 141 125 271 181 155 276 8 67 222 181 173 180 187 198 203 203 207 201 201 206 206 212 208 210 215 214 211 216 216 223 227 225 230 240 236 216 208 209 214 215 214 235 235 231 232 224 202